Location: Nairn
(57.5833°N, 3.8667°W)
Time: 16:11:47
(UTC+00:00)

Cosmos 2237 Rocket - Pass Details

Date: 07 August 2020
Orbit: 836 x 848 km, 71.0° (Epoch: 22 September)

Event Time Altitude Azimuth Distance (km) Brightness Sun altitude
Rises 02:29:58 0° 321° (NW) 3,415 5.6 -11.4°
Reaches altitude 10° 02:32:48 10° 309° (NW) 2,473 4.7 -11.2°
Maximum altitude 02:37:19 25° 256° (WSW) 1,636 3.3 -10.9°
Enters shadow 02:40:54 14° 209° (SSW) 2,190 3.7 -10.6°
